Location: Unspecified
(43.4354°N, 0.0000°E)
Time: 05:06:20
(UTC+00:00)

SR - Pass Details

Date: 23 June 2019
Orbit: 578 x 878 km, 66.7° (Epoch: 21 August)

Event Time Altitude Azimuth Distance (km) Brightness Sun altitude
Exits shadow 02:20:56 10° 154° (SSE) 1,889 ? -15.9°
Reaches altitude 10° 02:20:57 10° 154° (SSE) 1,885 ? -15.9°
Maximum altitude 02:23:54 19° 109° (ESE) 1,410 ? -15.6°
Drops below altitude 10° 02:26:53 10° 64° (ENE) 1,909 ? -15.3°
Sets 02:29:40 0° 46° (NE) 2,838 ? -15.0°
